Regional Weather Roundup
Issued by NWS Jackson, KY

Home | Current Version | Previous Version | Text Only | Print | Product List | Glossary On
Versions: 1 2 3 4 5 6 7 8 9 10 11 12 13 14 15 16 17 18 19 20 21 22 23 24 25 26 27 28 29 30 31 32 33 34 35 36 37 38 39 40 41 42 43 44 45 46 47 48 49 50
000
ASUS43 KJKL 071110
RWRJKL

EAST KENTUCKY HOURLY WEATHER ROUNDUP
NATIONAL WEATHER SERVICE JACKSON KY
700 AM EDT TUE JUL 07 2015

NOTE: "FAIR" INDICATES FEW OR NO CLOUDS BELOW 12,000 FEET WITH
NO SIGNIFICANT WEATHER AND/OR OBSTRUCTIONS TO VISIBILITY.

* THESE REPORTS ARE NOT UNDER NWS QUALITY CONTROL AND MAY NOT
  REPORT WEATHER SUCH AS PRECIPITATION AND FOG.

KYZ079-080-083-085-087-088-110-112-115-119-120-071200
...EASTERN KENTUCKY...

CITY           SKY/WX    TMP DP  RH WIND       PRES   REMARKS
JACKSON        MOCLDY    69  66  90 VRB3      30.11R FOG
LONDON         CLEAR     70  65  84 S6        30.11R
SOMERSET*      CLEAR     68  68 100 CALM      30.10S
MONTICELLO*    PTCLDY    73  72  97 SW5       30.11F
MIDDLESBORO*   CLOUDY    66  66 100 CALM      30.14S
HARLAN APT*      N/A     66  66 100 CALM      30.15S VSB<1/4
HAZARD APT*    CLOUDY    70  70 100 CALM      30.11S
BLACK MTN*       N/A     63  63 100 S3          N/A
PIKEVILLE APT* MOCLDY    66  64  94 CALM      30.13R FOG
BIG SANDY*     PTSUNNY   69  67  94 S5        30.11R
MOREHEAD APT*  CLOUDY    70  68  94 S5        30.08S
$$

KYZ035-036-041-042-044-050-067-078-099-071200
...CENTRAL KENTUCKY...

CITY           SKY/WX    TMP DP  RH WIND       PRES   REMARKS
MT STERLING*   PTCLDY    70  70 100 SW8       30.07S
FLEMING/MASON* MOCLDY    70  68  94 S8        30.05S
DANVILLE*      PTCLDY    70  68  94 SW6       30.07S
RICHMOND*      CLEAR     72  68  88 S7        30.06S
LEXINGTON      PTCLDY    72  70  93 S9        30.04S
FRANKFORT      PTCLDY    73  69  87 S8        30.02R
$$

KYZ091>093-OHZ055-061-077-WVZ005-015-034-035-042-071200
...SOUTHERN OHIO/WEST VIRGINIA...

CITY           SKY/WX    TMP DP  RH WIND       PRES   REMARKS
COVINGTON      MOCLDY    73  70  90 S7        29.99S
COLUMBUS       MOCLDY    71  67  87 S8        29.99S FOG
DAYTON         CLOUDY    75  71  87 SW12      29.98S
WILMINGTON     CLOUDY    71  68  90 S8        30.00S FOG
HUNTINGTON     MOCLDY    68  67  96 S7        30.06R FOG
CHARLESTON     MOCLDY    66  64  93 CALM      30.09R
PINEVILLE*     FOG       63  63 100 MISG      30.21R VSB 1/4
BECKLEY        CLEAR     64  62  93 S6        30.19R FOG
BLUEFIELD      CLEAR     65  60  84 CALM      30.21R HAZE
$$

VAZ002-007-008-TNZ017-027-036-066-071-071200
...SOUTHWEST VIRGINIA/EAST TENNESSEE...

CITY           SKY/WX    TMP DP  RH WIND       PRES   REMARKS
WISE*          CLEAR     64  64 100 S5        30.21S FOG
JONESVILLE*      N/A    N/A N/A N/A MISG        N/A
ABINGDON*      CLOUDY    65  65 100 CALM      30.20R FOG
BRISTOL        MOCLDY    65  64  97 CALM      30.17R FOG
KNOXVILLE      CLOUDY    72  67  84 SW6       30.13R
OAK RIDGE      CLOUDY    71  69  93 CALM      30.14S
CROSSVILLE     CLOUDY    71  68  90 CALM      30.16F FOG
NASHVILLE      MOCLDY    75  72  90 S8        30.07R
$$

...KEY TO REMARKS...
VSB - VISIBILITY IN MILES
WCI - WIND CHILL INDEX
HX  - HEAT INDEX

$$



USA.gov is the U.S. government's official web portal to all federal, state and local government web resources and services.